Mason, MI

1:43 AM EDT on August 26, 2016 (GMT -0400)
Mason Jewett

Weather History for KTEW - September, 2012

Change the Weather History Date:

Tuesday, September 18, 2012

  Actual Average (KLAN) Record (KLAN)
Temperature  
Mean Temperature 55 °F 61 °F  
Max Temperature 65 °F 72 °F 93 °F (1955)
Min Temperature 45 °F 50 °F 25 °F (1863)
Degree Days  
Heating Degree Days 10 6  
Month to date heating degree days 61  
Since 1 July heating degree days 96  
Cooling Degree Days 0 2  
Month to date cooling degree days 49  
Year to date cooling degree days 606  
Growing Degree Days 5 (Base 50)    
Moisture  
Dew Point 46 °F    
Average Humidity 71    
Maximum Humidity 91    
Minimum Humidity 43    
Precipitation  
Precipitation 0.00 in 0.13 in 0.89 in (1949)
Month to date precipitation 2.07  
Year to date precipitation 23.16  
Snow  
Snow 0.00 in 0.00 in 0.00 in ()
Month to date snowfall 0.0  
Since 1 July snowfall 0.0  
Since 1 September snowfall 0.0  
Snow Depth -    
Sea Level Pressure  
Sea Level Pressure 29.77 in    
Wind  
Wind Speed 8 mph (NW)    
Max Wind Speed 23 mph    
Max Gust Speed 29 mph    
Visibility 10 miles    
Events Rain    
T = Trace of Precipitation, MM = Missing Value Source: NWS Daily Summary

Daily Weather History Graph

Daily Weather History Graph

Search for Another Location

Airport or City:

Trip Planner

Search our weather history database for the weather conditions in past years. The results will help you decide how hot, cold, wet, or windy it might be!

Date:

Astronomy

Sep. 18, 2012 Rise Set
Actual Time 7:21 AM EDT 7:41 PM EDT
Civil Twilight 6:53 AM EDT 8:09 PM EDT
Nautical Twilight 6:19 AM EDT 8:42 PM EDT
Astronomical Twilight 5:45 AM EDT 9:16 PM EDT
Moon 10:25 AM EDT (9/18) 8:57 PM EDT (9/18)
Length of Visible Light 13h 16m
Length of Day
12h 19m
Waxing Crescent, 9% of the Moon is Illuminated
Sep 18
Waxing Crescent
Sep 22
First Quarter
Sep 29
Full
Oct 8
Last Quarter
Oct 15
New

Hourly Weather History & Observations

Time (EDT) Temp. Windchill Dew Point Humidity Pressure Visibility Wind Dir Wind Speed Gust Speed Precip Events Conditions
12:13 AM 64.4 °F - 58.1 °F 80% 29.70 in 10.0 mi Calm Calm - N/A   Clear
12:33 AM 64.0 °F - 58.5 °F 82% 29.69 in 10.0 mi Calm Calm - N/A   Clear
12:52 AM 64.2 °F - 59.0 °F 83% 29.69 in 10.0 mi Calm Calm - N/A   Scattered Clouds
1:12 AM 64.4 °F - 59.5 °F 84% 29.69 in 7.0 mi West 3.5 mph - N/A   Scattered Clouds
1:33 AM 64.8 °F - 60.1 °F 85% 29.68 in 7.0 mi Calm Calm - N/A   Mostly Cloudy
1:52 AM 65.3 °F - 60.8 °F 85% 29.68 in 7.0 mi West 4.6 mph - N/A   Overcast
2:12 AM 65.3 °F - 60.4 °F 84% 29.68 in 7.0 mi West 6.9 mph - N/A   Overcast
2:33 AM 64.8 °F - 59.4 °F 83% 29.67 in 10.0 mi WNW 6.9 mph - N/A   Overcast
2:52 AM 63.7 °F - 59.0 °F 85% 29.67 in 10.0 mi West 10.4 mph - N/A   Overcast
3:33 AM 61.9 °F - 57.9 °F 87% 29.66 in 10.0 mi WNW 10.4 mph - N/A   Overcast
3:52 AM 61.0 °F - 57.4 °F 88% 29.66 in 10.0 mi NW 10.4 mph - N/A   Light Drizzle
4:12 AM 59.5 °F - 55.4 °F 86% 29.66 in 10.0 mi NW 10.4 mph 17.3 mph N/A Rain Light Rain
4:33 AM 58.6 °F - 55.0 °F 88% 29.66 in 10.0 mi NW 11.5 mph - N/A   Overcast
4:52 AM 58.1 °F - 54.9 °F 89% 29.66 in 10.0 mi NW 10.4 mph - N/A   Overcast
5:12 AM 57.6 °F - 54.5 °F 90% 29.67 in 10.0 mi NW 9.2 mph - N/A Rain Light Rain
5:33 AM 56.1 °F - 52.3 °F 87% 29.67 in 10.0 mi NNW 15.0 mph 20.7 mph N/A   Overcast
5:52 AM 54.7 °F - 52.0 °F 91% 29.67 in 7.0 mi NNW 12.7 mph 17.3 mph N/A Rain Light Rain
6:12 AM 54.1 °F - 51.3 °F 90% 29.68 in 10.0 mi NNW 9.2 mph 16.1 mph N/A   Overcast
6:33 AM 53.6 °F - 50.2 °F 88% 29.69 in 10.0 mi NNW 11.5 mph 18.4 mph N/A   Overcast
6:52 AM 53.2 °F - 50.0 °F 89% 29.69 in 10.0 mi NNW 10.4 mph - N/A   Overcast
7:13 AM 53.1 °F - 49.5 °F 88% 29.69 in 10.0 mi NNW 9.2 mph - N/A   Overcast
7:33 AM 53.1 °F - 49.3 °F 87% 29.70 in 10.0 mi NW 9.2 mph - N/A   Overcast
7:52 AM 52.9 °F - 49.1 °F 87% 29.70 in 10.0 mi NW 8.1 mph - N/A   Overcast
8:13 AM 52.9 °F - 48.6 °F 85% 29.70 in 10.0 mi NW 12.7 mph 17.3 mph N/A   Overcast
8:33 AM 52.7 °F - 48.2 °F 85% 29.70 in 10.0 mi NNW 11.5 mph - N/A   Mostly Cloudy
8:52 AM 52.7 °F - 48.2 °F 85% 29.71 in 10.0 mi NW 9.2 mph - N/A   Scattered Clouds
9:13 AM 54.7 °F - 48.2 °F 79% 29.71 in 10.0 mi NW 10.4 mph - N/A   Clear
9:52 AM 56.3 °F - 46.2 °F 69% 29.71 in 10.0 mi NNW 10.4 mph 18.4 mph N/A   Clear
10:13 AM 57.2 °F - 45.1 °F 64% 29.72 in 10.0 mi NNW 9.2 mph 24.2 mph N/A   Scattered Clouds
10:33 AM 57.2 °F - 45.5 °F 65% 29.72 in 10.0 mi NNW 12.7 mph 18.4 mph N/A   Mostly Cloudy
10:52 AM 58.3 °F - 46.9 °F 66% 29.73 in 10.0 mi North 10.4 mph 17.3 mph N/A   Mostly Cloudy
11:13 AM 57.4 °F - 47.3 °F 69% 29.73 in 10.0 mi NNW 13.8 mph - N/A   Mostly Cloudy
11:33 AM 57.7 °F - 47.5 °F 69% 29.73 in 10.0 mi NNW 12.7 mph 17.3 mph N/A   Overcast
11:52 AM 58.3 °F - 47.1 °F 66% 29.73 in 10.0 mi NNW 16.1 mph 23.0 mph N/A   Overcast
12:13 PM 57.7 °F - 48.6 °F 71% 29.74 in 10.0 mi NNW 15.0 mph 20.7 mph N/A Rain Rain
12:32 PM 56.7 °F - 49.5 °F 77% 29.74 in 10.0 mi NW 10.4 mph - N/A   Mostly Cloudy
12:53 PM 58.8 °F - 47.1 °F 65% 29.74 in 10.0 mi NNW 17.3 mph 20.7 mph N/A   Mostly Cloudy
1:13 PM 56.3 °F - 47.1 °F 71% 29.75 in 10.0 mi NW 12.7 mph 19.6 mph N/A   Overcast
1:32 PM 57.0 °F - 47.5 °F 70% 29.75 in 10.0 mi NW 9.2 mph 16.1 mph N/A   Overcast
1:53 PM 61.0 °F - 47.1 °F 60% 29.74 in 10.0 mi NW 16.1 mph 20.7 mph N/A   Mostly Cloudy
2:13 PM 60.1 °F - 42.4 °F 52% 29.75 in 10.0 mi North 9.2 mph 18.4 mph N/A   Mostly Cloudy
2:32 PM 59.5 °F - 44.2 °F 57% 29.76 in 10.0 mi WNW 12.7 mph 20.7 mph N/A Rain Rain
2:53 PM 57.6 °F - 45.5 °F 64% 29.76 in 10.0 mi West 12.7 mph 16.1 mph N/A Rain Light Rain
3:13 PM 57.6 °F - 43.7 °F 60% 29.76 in 10.0 mi West 6.9 mph - N/A   Overcast
3:32 PM 58.3 °F - 44.6 °F 60% 29.78 in 10.0 mi West 13.8 mph - N/A   Overcast
3:53 PM 53.1 °F - 45.7 °F 76% 29.80 in 7.0 mi NNW 18.4 mph 28.8 mph N/A Rain Light Rain
4:13 PM 55.9 °F - 45.3 °F 68% 29.79 in 10.0 mi NW 12.7 mph 18.4 mph N/A   Mostly Cloudy
4:33 PM 57.2 °F - 42.8 °F 59% 29.80 in 10.0 mi NW 15.0 mph 27.6 mph N/A   Clear
4:53 PM 57.6 °F - 42.4 °F 57% 29.80 in 10.0 mi WNW 15.0 mph 23.0 mph N/A   Clear
5:13 PM 58.6 °F - 38.7 °F 47% 29.81 in 10.0 mi WNW 23.0 mph 27.6 mph N/A   Scattered Clouds
5:33 PM 58.1 °F - 35.8 °F 43% 29.82 in 10.0 mi WNW 17.3 mph 25.3 mph N/A   Mostly Cloudy
5:53 PM 56.8 °F - 36.7 °F 47% 29.83 in 10.0 mi WNW 15.0 mph 21.9 mph N/A   Scattered Clouds
6:12 PM 56.5 °F - 36.0 °F 46% 29.83 in 10.0 mi WNW 15.0 mph 21.9 mph N/A   Scattered Clouds
6:33 PM 56.8 °F - 35.8 °F 45% 29.84 in 10.0 mi WNW 13.8 mph 19.6 mph N/A   Clear
6:53 PM 56.3 °F - 35.2 °F 45% 29.85 in 10.0 mi NW 13.8 mph 19.6 mph N/A   Scattered Clouds
7:12 PM 54.9 °F - 33.3 °F 44% 29.86 in 10.0 mi WNW 12.7 mph 20.7 mph N/A   Scattered Clouds
7:33 PM 53.8 °F - 32.4 °F 44% 29.88 in 10.0 mi WNW 11.5 mph 20.7 mph N/A   Clear
8:12 PM 51.4 °F - 33.1 °F 50% 29.91 in 10.0 mi NW 10.4 mph - N/A   Clear
8:33 PM 50.9 °F - 35.2 °F 55% 29.92 in 10.0 mi NW 8.1 mph - N/A   Clear
8:53 PM 50.4 °F - 35.4 °F 57% 29.92 in 10.0 mi NW 6.9 mph - N/A   Scattered Clouds
9:12 PM 50.0 °F - 36.1 °F 59% 29.94 in 10.0 mi NW 9.2 mph - N/A   Clear
9:33 PM 48.4 °F - 37.0 °F 65% 29.94 in 10.0 mi West 5.8 mph - N/A   Clear
9:53 PM 47.3 °F - 37.4 °F 68% 29.95 in 10.0 mi West 4.6 mph - N/A   Clear
10:12 PM 46.8 °F - 37.6 °F 70% 29.96 in 10.0 mi West 4.6 mph - N/A   Clear
10:33 PM 46.8 °F - 37.6 °F 70% 29.96 in 10.0 mi West 3.5 mph - N/A   Clear
10:53 PM 45.9 °F 44.6 °F 37.4 °F 72% 29.96 in 10.0 mi West 3.5 mph - N/A   Clear
11:12 PM 45.7 °F - 37.4 °F 73% 29.96 in 10.0 mi Calm Calm - N/A   Scattered Clouds
11:53 PM 45.5 °F 43.2 °F 36.9 °F 72% 29.97 in 10.0 mi WSW 4.6 mph - N/A   Clear